| time (UTC) | temp C | wind direction | speed KPH | gust KPH | rain 1hr cm | rain 24hr cm | rain mn cm | humidity % | barometer mb |
| 20260504120220 | 12 | 99 | 0.0 | 3.2 | 0.00 | 0.00 | 0.00 | 59 | 1015.6 |
| 20260504110647 | 7 | 131 | 0.0 | 1.6 | 0.00 | 0.00 | 0.00 | 71 | 1015.7 |
| 20260504110143 | 7 | 154 | 0.0 | 0.0 | 0.00 | 0.00 | 0.00 | 72 | 1015.5 |
| 20260504100609 | 5 | 214 | 3.2 | 3.2 | 0.00 | 0.00 | 0.00 | 78 | 1015.6 |
| 20260504100108 | 5 | 314 | 0.0 | 3.2 | 0.00 | 0.00 | 0.00 | 77 | 1015.5 |
| 20260504082003 | 6 | 313 | 0.0 | 1.6 | 0.00 | 0.00 | 0.00 | 69 | 1015.9 |
| 20260504081500 | 6 | 322 | 0.0 | 0.0 | 0.00 | 0.00 | 0.00 | 68 | 1015.8 |
| 20260504080950 | 7 | 322 | 1.6 | 1.6 | 0.00 | 0.00 | 0.00 | 66 | 1015.6 |
| 20260504080447 | 7 | 342 | 3.2 | 3.2 | 0.00 | 0.00 | 0.00 | 65 | 1015.9 |
| 20260504050253 | 11 | 238 | 4.8 | 9.7 | 0.00 | 0.00 | 0.00 | 50 | 1015.6 |
| 20260504045750 | 11 | 233 | 6.4 | 11.3 | 0.00 | 0.00 | 0.00 | 49 | 1015.7 |
| 20260504045245 | 11 | 273 | 8.0 | 11.3 | 0.00 | 0.00 | 0.00 | 50 | 1015.8 |
| 20260504044743 | 11 | 257 | 6.4 | 11.3 | 0.00 | 0.00 | 0.00 | 50 | 1015.7 |
| 20260504044241 | 11 | 265 | 8.0 | 11.3 | 0.00 | 0.00 | 0.00 | 50 | 1015.6 |
| 20260504043737 | 11 | 231 | 3.2 | 11.3 | 0.00 | 0.00 | 0.00 | 50 | 1015.7 |
| 20260504043234 | 11 | 256 | 4.8 | 9.7 | 0.00 | 0.00 | 0.00 | 50 | 1015.7 |
| 20260504042732 | 11 | 282 | 6.4 | 9.7 | 0.00 | 0.00 | 0.00 | 50 | 1015.5 |
| 20260504042228 | 11 | 243 | 6.4 | 12.9 | 0.00 | 0.00 | 0.00 | 50 | 1015.9 |
| 20260504041724 | 11 | 251 | 6.4 | 12.9 | 0.00 | 0.00 | 0.00 | 50 | 1015.7 |
| 20260504041220 | 11 | 255 | 8.0 | 11.3 | 0.00 | 0.00 | 0.00 | 49 | 1015.6 |
| 20260504040717 | 11 | 244 | 6.4 | 11.3 | 0.00 | 0.00 | 0.00 | 50 | 1015.5 |
| 20260504040214 | 11 | 255 | 8.0 | 11.3 | 0.00 | 0.00 | 0.00 | 49 | 1015.5 |
| 20260504035710 | 11 | 254 | 6.4 | 12.9 | 0.00 | 0.00 | 0.00 | 48 | 1015.4 |
| 20260504035208 | 11 | 266 | 4.8 | 12.9 | 0.00 | 0.00 | 0.00 | 49 | 1015.6 |
| 20260504034705 | 11 | 226 | 9.7 | 11.3 | 0.00 | 0.00 | 0.00 | 48 | 1015.4 |
| 20260504034202 | 11 | 248 | 3.2 | 11.3 | 0.00 | 0.00 | 0.00 | 49 | 1015.4 |
| 20260504033700 | 11 | 229 | 9.7 | 12.9 | 0.00 | 0.00 | 0.00 | 48 | 1015.3 |
| 20260504033157 | 11 | 261 | 6.4 | 12.9 | 0.00 | 0.00 | 0.00 | 49 | 1015.4 |
| 20260504032653 | 11 | 244 | 11.3 | 12.9 | 0.00 | 0.00 | 0.00 | 48 | 1015.3 |
| 20260504032151 | 11 | 208 | 6.4 | 12.9 | 0.00 | 0.00 | 0.00 | 49 | 1015.2 |
| 20260504031648 | 11 | 252 | 8.0 | 11.3 | 0.00 | 0.00 | 0.00 | 49 | 1015.1 |
| 20260504031144 | 11 | 230 | 4.8 | 9.7 | 0.00 | 0.00 | 0.00 | 50 | 1015.2 |
| 20260504030641 | 11 | 242 | 6.4 | 9.7 | 0.00 | 0.00 | 0.00 | 49 | 1015.2 |
| 20260504030138 | 11 | 259 | 4.8 | 9.7 | 0.00 | 0.00 | 0.00 | 49 | 1015.2 |
| 20260504025634 | 11 | 247 | 9.7 | 12.9 | 0.00 | 0.00 | 0.00 | 49 | 1015.2 |
| 20260504025131 | 11 | 221 | 3.2 | 9.7 | 0.00 | 0.00 | 0.00 | 49 | 1015.2 |
| 20260504024628 | 11 | 238 | 4.8 | 11.3 | 0.00 | 0.00 | 0.00 | 48 | 1015.2 |
| 20260504024125 | 11 | 252 | 9.7 | 11.3 | 0.00 | 0.00 | 0.00 | 48 | 1015.2 |
| 20260504023621 | 11 | 245 | 6.4 | 9.7 | 0.00 | 0.00 | 0.00 | 49 | 1015.2 |
| 20260504023118 | 11 | 259 | 6.4 | 12.9 | 0.00 | 0.00 | 0.00 | 49 | 1015.1 |
| 20260504022614 | 11 | 200 | 3.2 | 9.7 | 0.00 | 0.00 | 0.00 | 49 | 1015.1 |
| 20260504022110 | 11 | 253 | 8.0 | 11.3 | 0.00 | 0.00 | 0.00 | 49 | 1015.3 |
| 20260504021608 | 11 | 231 | 4.8 | 9.7 | 0.00 | 0.00 | 0.00 | 49 | 1015.3 |
| 20260504021105 | 11 | 234 | 4.8 | 6.4 | 0.00 | 0.00 | 0.00 | 50 | 1015.4 |
| 20260504020602 | 11 | 245 | 4.8 | 6.4 | 0.00 | 0.00 | 0.00 | 49 | 1015.3 |
| 20260504020058 | 11 | 274 | 6.4 | 9.7 | 0.00 | 0.00 | 0.00 | 49 | 1015.3 |
| 20260504015554 | 11 | 234 | 3.2 | 6.4 | 0.00 | 0.00 | 0.00 | 49 | 1015.2 |
| 20260504015050 | 11 | 235 | 3.2 | 6.4 | 0.00 | 0.00 | 0.00 | 50 | 1015.3 |
| 20260504014547 | 11 | 250 | 6.4 | 9.7 | 0.00 | 0.00 | 0.00 | 49 | 1015.2 |
| 20260504014044 | 11 | 233 | 4.8 | 6.4 | 0.00 | 0.00 | 0.00 | 49 | 1015.1 |
| 20260504013541 | 11 | 235 | 3.2 | 4.8 | 0.00 | 0.00 | 0.00 | 51 | 1015.0 |
| 20260504013038 | 11 | 227 | 4.8 | 6.4 | 0.00 | 0.00 | 0.00 | 50 | 1015.3 |
| 20260504012536 | 11 | 211 | 3.2 | 4.8 | 0.00 | 0.00 | 0.00 | 51 | 1015.1 |
| 20260504012033 | 11 | 227 | 4.8 | 6.4 | 0.00 | 0.00 | 0.00 | 50 | 1015.0 |
| 20260504011530 | 11 | 243 | 3.2 | 6.4 | 0.00 | 0.00 | 0.00 | 51 | 1015.3 |
| 20260504011026 | 11 | 225 | 3.2 | 4.8 | 0.00 | 0.00 | 0.00 | 51 | 1014.9 |
| 20260504010522 | 11 | 243 | 3.2 | 4.8 | 0.00 | 0.00 | 0.00 | 51 | 1015.0 |
| 20260504010018 | 11 | 253 | 4.8 | 6.4 | 0.00 | 0.00 | 0.00 | 50 | 1015.2 |
| 20260504005515 | 11 | 226 | 6.4 | 9.7 | 0.00 | 0.00 | 0.00 | 51 | 1014.9 |
| 20260504005012 | 11 | 248 | 3.2 | 6.4 | 0.00 | 0.00 | 0.00 | 52 | 1015.0 |
| 20260504004510 | 11 | 220 | 3.2 | 4.8 | 0.00 | 0.00 | 0.00 | 52 | 1015.2 |
| 20260504004007 | 11 | 261 | 3.2 | 4.8 | 0.00 | 0.00 | 0.00 | 53 | 1014.9 |
| 20260504003503 | 11 | 262 | 3.2 | 6.4 | 0.00 | 0.00 | 0.00 | 51 | 1014.9 |
| 20260504003000 | 11 | 256 | 6.4 | 6.4 | 0.00 | 0.00 | 0.00 | 51 | 1014.8 |
| 20260504002457 | 11 | 239 | 3.2 | 6.4 | 0.00 | 0.00 | 0.00 | 51 | 1014.6 |
| 20260504001954 | 11 | 258 | 4.8 | 6.4 | 0.00 | 0.00 | 0.00 | 50 | 1014.7 |
| 20260504001451 | 12 | 260 | 4.8 | 6.4 | 0.00 | 0.00 | 0.00 | 50 | 1014.6 |
| 20260504000948 | 12 | 240 | 3.2 | 4.8 | 0.00 | 0.00 | 0.00 | 50 | 1014.4 |
| 20260504000445 | 12 | 261 | 3.2 | 6.4 | 0.00 | 0.00 | 0.00 | 48 | 1014.5 |
| 20260503235942 | 12 | 298 | 6.4 | 9.7 | 0.00 | 0.00 | 0.00 | 47 | 1014.3 |
| 20260503235440 | 12 | 246 | 3.2 | 6.4 | 0.00 | 0.00 | 0.00 | 48 | 1014.4 |
| 20260503234937 | 13 | 304 | 3.2 | 4.8 | 0.00 | 0.00 | 0.00 | 47 | 1014.3 |
| 20260503234435 | 13 | 277 | 3.2 | 4.8 | 0.00 | 0.00 | 0.00 | 46 | 1014.1 |
| 20260503233933 | 13 | 279 | 3.2 | 9.7 | 0.00 | 0.00 | 0.00 | 46 | 1014.3 |
| 20260503233429 | 14 | 293 | 3.2 | 6.4 | 0.00 | 0.00 | 0.00 | 44 | 1014.0 |
| 20260503232925 | 14 | 264 | 3.2 | 6.4 | 0.00 | 0.00 | 0.00 | 43 | 1014.3 |
| 20260503232422 | 15 | 298 | 9.7 | 12.9 | 0.00 | 0.00 | 0.00 | 42 | 1014.0 |
| 20260503231920 | 15 | 299 | 6.4 | 11.3 | 0.00 | 0.00 | 0.00 | 42 | 1014.1 |
| 20260503231417 | 15 | 303 | 6.4 | 6.4 | 0.00 | 0.00 | 0.00 | 42 | 1014.1 |
| 20260503230913 | 15 | 322 | 4.8 | 9.7 | 0.00 | 0.00 | 0.00 | 41 | 1014.3 |
| 20260503230410 | 15 | 327 | 8.0 | 12.9 | 0.00 | 0.00 | 0.00 | 40 | 1013.8 |
| 20260503225908 | 15 | 21 | 6.4 | 17.7 | 0.00 | 0.00 | 0.00 | 40 | 1013.9 |
| 20260503225404 | 15 | 247 | 11.3 | 16.1 | 0.00 | 0.00 | 0.00 | 41 | 1014.1 |
| 20260503224900 | 15 | 336 | 6.4 | 16.1 | 0.00 | 0.00 | 0.00 | 40 | 1014.0 |
| 20260503224357 | 15 | 268 | 8.0 | 14.5 | 0.00 | 0.00 | 0.00 | 40 | 1014.0 |
| 20260503223855 | 15 | 325 | 8.0 | 25.7 | 0.00 | 0.00 | 0.00 | 41 | 1014.0 |
| 20260503223353 | 15 | 264 | 4.8 | 20.9 | 0.00 | 0.00 | 0.00 | 40 | 1013.9 |
| 20260503222848 | 16 | 276 | 16.1 | 20.9 | 0.00 | 0.00 | 0.00 | 39 | 1013.7 |
| 20260503222347 | 15 | 322 | 8.0 | 12.9 | 0.00 | 0.00 | 0.00 | 39 | 1013.8 |
| 20260503221844 | 14 | 294 | 8.0 | 16.1 | 0.00 | 0.00 | 0.00 | 41 | 1013.9 |
| 20260503221343 | 15 | 298 | 14.5 | 24.1 | 0.00 | 0.00 | 0.00 | 41 | 1014.0 |
| 20260503220838 | 14 | 316 | 9.7 | 12.9 | 0.00 | 0.00 | 0.00 | 42 | 1013.9 |
| 20260503220335 | 14 | 322 | 9.7 | 12.9 | 0.00 | 0.00 | 0.00 | 41 | 1013.9 |
| 20260503215832 | 15 | 315 | 8.0 | 17.7 | 0.00 | 0.00 | 0.00 | 41 | 1014.1 |
| 20260503215330 | 15 | 327 | 3.2 | 11.3 | 0.00 | 0.00 | 0.00 | 42 | 1013.9 |
| 20260503214827 | 15 | 339 | 3.2 | 11.3 | 0.00 | 0.00 | 0.00 | 41 | 1014.0 |
| 20260503214324 | 14 | 323 | 3.2 | 9.7 | 0.00 | 0.00 | 0.00 | 41 | 1013.9 |
| 20260503213821 | 14 | 352 | 6.4 | 16.1 | 0.00 | 0.00 | 0.00 | 40 | 1013.9 |
| 20260503213319 | 15 | 290 | 8.0 | 16.1 | 0.00 | 0.00 | 0.00 | 40 | 1013.8 |
| 20260503212810 | 16 | 7 | 4.8 | 17.7 | 0.00 | 0.00 | 0.00 | 38 | 1013.7 |
| 20260503212308 | 16 | 354 | 9.7 | 16.1 | 0.00 | 0.00 | 0.00 | 39 | 1013.8 |
| 20260503211805 | 16 | 290 | 8.0 | 25.7 | 0.00 | 0.00 | 0.00 | 40 | 1013.7 |
| 20260503211301 | 16 | 26 | 9.7 | 22.5 | 0.00 | 0.00 | 0.00 | 39 | 1013.6 |
| 20260503210756 | 16 | 324 | 6.4 | 16.1 | 0.00 | 0.00 | 0.00 | 38 | 1013.9 |
| 20260503210254 | 16 | 355 | 17.7 | 22.5 | 0.00 | 0.00 | 0.00 | 38 | 1013.7 |
| 20260503205749 | 16 | 282 | 6.4 | 6.4 | 0.00 | 0.00 | 0.00 | 40 | 1013.8 |
| 20260503205245 | 15 | 286 | 8.0 | 16.1 | 0.00 | 0.00 | 0.00 | 39 | 1013.9 |
| 20260503204742 | 16 | 284 | 12.9 | 20.9 | 0.00 | 0.00 | 0.00 | 39 | 1013.8 |
| 20260503204240 | 16 | 305 | 8.0 | 22.5 | 0.00 | 0.00 | 0.00 | 39 | 1013.9 |
| 20260503203737 | 16 | 338 | 11.3 | 17.7 | 0.00 | 0.00 | 0.00 | 38 | 1013.5 |
| 20260503203234 | 16 | 307 | 6.4 | 9.7 | 0.00 | 0.00 | 0.00 | 36 | 1013.7 |
| 20260503202731 | 16 | 320 | 6.4 | 12.9 | 0.00 | 0.00 | 0.00 | 38 | 1013.8 |
| 20260503202228 | 15 | 305 | 9.7 | 14.5 | 0.00 | 0.00 | 0.00 | 39 | 1013.7 |
| 20260503201727 | 15 | 7 | 9.7 | 12.9 | 0.00 | 0.00 | 0.00 | 38 | 1013.8 |
| 20260503201224 | 14 | 315 | 8.0 | 11.3 | 0.00 | 0.00 | 0.00 | 38 | 1014.0 |
| 20260503200720 | 15 | 343 | 12.9 | 17.7 | 0.00 | 0.00 | 0.00 | 38 | 1014.4 |
| 20260503200217 | 15 | 303 | 9.7 | 14.5 | 0.00 | 0.00 | 0.00 | 39 | 1014.1 |
| 20260503195714 | 15 | 289 | 14.5 | 20.9 | 0.00 | 0.00 | 0.00 | 39 | 1014.3 |
| 20260503195211 | 15 | 26 | 9.7 | 16.1 | 0.00 | 0.00 | 0.00 | 39 | 1014.3 |
| 20260503194708 | 15 | 5 | 9.7 | 20.9 | 0.00 | 0.00 | 0.00 | 38 | 1014.4 |
| 20260503194204 | 14 | 346 | 11.3 | 17.7 | 0.00 | 0.00 | 0.00 | 37 | 1014.5 |
| 20260503193700 | 15 | 264 | 12.9 | 16.1 | 0.00 | 0.00 | 0.00 | 37 | 1014.7 |
| 20260503193156 | 15 | 339 | 11.3 | 22.5 | 0.00 | 0.00 | 0.00 | 37 | 1014.5 |
| 20260503192652 | 15 | 301 | 9.7 | 12.9 | 0.00 | 0.00 | 0.00 | 38 | 1014.6 |
| 20260503192147 | 15 | 318 | 12.9 | 24.1 | 0.00 | 0.00 | 0.00 | 37 | 1014.6 |
| 20260503191644 | 15 | 336 | 3.2 | 9.7 | 0.00 | 0.00 | 0.00 | 42 | 1014.8 |
| 20260503191141 | 14 | 3 | 6.4 | 16.1 | 0.00 | 0.00 | 0.00 | 39 | 1014.9 |
| 20260503190638 | 15 | 278 | 9.7 | 24.1 | 0.00 | 0.00 | 0.00 | 39 | 1014.7 |
| 20260503190135 | 15 | 348 | 9.7 | 16.1 | 0.00 | 0.00 | 0.00 | 40 | 1014.9 |
| 20260503185632 | 15 | 342 | 9.7 | 17.7 | 0.00 | 0.00 | 0.00 | 40 | 1014.8 |
| 20260503185126 | 14 | 326 | 9.7 | 17.7 | 0.00 | 0.00 | 0.00 | 40 | 1015.3 |
| 20260503184622 | 15 | 324 | 6.4 | 17.7 | 0.00 | 0.00 | 0.00 | 41 | 1015.1 |
| 20260503184119 | 13 | 342 | 6.4 | 17.7 | 0.00 | 0.00 | 0.00 | 40 | 1015.1 |
| 20260503183615 | 14 | 330 | 14.5 | 24.1 | 0.00 | 0.00 | 0.00 | 39 | 1015.4 |
| 20260503183113 | 15 | 299 | 9.7 | 17.7 | 0.00 | 0.00 | 0.00 | 40 | 1015.2 |
| 20260503182611 | 14 | 2 | 11.3 | 24.1 | 0.00 | 0.00 | 0.00 | 40 | 1015.4 |
| 20260503182109 | 14 | 344 | 9.7 | 16.1 | 0.00 | 0.00 | 0.00 | 41 | 1015.2 |
| 20260503181605 | 14 | 307 | 8.0 | 17.7 | 0.00 | 0.00 | 0.00 | 42 | 1015.2 |
| 20260503181102 | 13 | 3 | 8.0 | 16.1 | 0.00 | 0.00 | 0.00 | 41 | 1015.4 |
| 20260503180559 | 13 | 18 | 12.9 | 20.9 | 0.00 | 0.00 | 0.00 | 39 | 1015.2 |
| 20260503180056 | 13 | 15 | 11.3 | 16.1 | 0.00 | 0.00 | 0.00 | 43 | 1015.4 |
| 20260503175554 | 13 | 320 | 3.2 | 11.3 | 0.00 | 0.00 | 0.00 | 42 | 1015.5 |
| 20260503175051 | 13 | 324 | 8.0 | 16.1 | 0.00 | 0.00 | 0.00 | 42 | 1015.5 |
| 20260503174548 | 13 | 304 | 16.1 | 24.1 | 0.00 | 0.00 | 0.00 | 41 | 1015.7 |
| 20260503174044 | 12 | 331 | 4.8 | 17.7 | 0.00 | 0.00 | 0.00 | 44 | 1015.8 |
| 20260503173539 | 12 | 309 | 12.9 | 33.8 | 0.00 | 0.00 | 0.00 | 42 | 1015.8 |
| 20260503173036 | 12 | 317 | 6.4 | 16.1 | 0.00 | 0.00 | 0.00 | 44 | 1015.7 |
| 20260503172534 | 12 | 294 | 8.0 | 9.7 | 0.00 | 0.00 | 0.00 | 44 | 1015.7 |
| 20260503172030 | 13 | 314 | 9.7 | 20.9 | 0.00 | 0.00 | 0.00 | 43 | 1015.9 |
| 20260503171527 | 11 | 332 | 4.8 | 22.5 | 0.00 | 0.00 | 0.00 | 45 | 1016.0 |
| 20260503171024 | 12 | 314 | 4.8 | 22.5 | 0.00 | 0.00 | 0.00 | 44 | 1015.9 |
| 20260503170520 | 12 | 29 | 8.0 | 16.1 | 0.00 | 0.00 | 0.00 | 45 | 1016.0 |
| 20260503150913 | 11 | 300 | 8.0 | 16.1 | 0.00 | 0.00 | 0.00 | 46 | 1016.5 |
| 20260503150409 | 9 | 337 | 3.2 | 17.7 | 0.00 | 0.00 | 0.00 | 48 | 1016.6 |
| 20260503131303 | 8 | 25 | 4.8 | 11.3 | 0.00 | 0.00 | 0.00 | 62 | 1016.9 |
| 20260503130800 | 7 | 333 | 9.7 | 14.5 | 0.00 | 0.00 | 0.00 | 63 | 1016.9 |
| 20260503130257 | 8 | 326 | 9.7 | 14.5 | 0.00 | 0.00 | 0.00 | 63 | 1016.9 |